Погода в Лермонтовке

Россия / Хабаровский край     47°09′02″N   134°19′58″E
темп.,
°C
ветер,
м/с
пор.,
м/с
влажн.,
%
обл.,
%
осадки,
мм/ч
давл.,
гПа
погр.,
м
21 апреля, ср
ср2101:00+2зсз310380 0.0 1016231
04:000з28420 0.0 1017147
07:00+1зюз134113 0.0 101975
10:00+10зсз36200 0.0 1020686
13:00+17сз48170 0.0 10191548
16:00+19сз46170 0.0 10181848
19:00+16зсз22240 0.0 101817
22:00+11юв11300 0.0 102010
22 апреля, чт
чт2201:00+9юв22350 0.0 102112
04:00+8ююв22390 0.0 102120
07:00+8юв24430 0.0 102267
10:00+17ююв46250 0.0 1022511
13:00+22ю56200 0.0 10211091
16:00+24ю45181 0.0 10191744
19:00+22ю36270 0.0 1019137
22:00+15ююв32385 0.0 102027
23 апреля, пт
пт2301:00+13ююв3244100 0.0 102041
04:00+12ююв51048100 0.0 1021309
07:00+11ююв51149100 0.0 1022403
10:00+14ю6841100 0.0 1022516
13:00+18ююз5636100 0.0 1021892
16:00+20юз5838100 0.0 10191463
19:00+16з51149100 0.0 1020699
22:00+12з51063100 0.0 1020752
24 апреля, сб
сб2401:00+8зсз61065100 0.0 1021677
04:00+8сз4762100 0.1 1021986
07:00+6ссз4658100 0.0 10211023
10:00+9ссз57344 0.0 10211619
13:00+11с57305 0.0 10202012
16:00+13сз58190 0.0 10182419
19:00+12сз692374 0.0 10172382
22:00+8сз4928100 0.0 1018398
25 апреля, вс
вс2501:00+5з243574 0.0 101879
04:00+6з51234100 0.0 1015918
07:00+5сз611411 0.0 1015960
10:00+7сз8113098 0.0 10142613
13:00+10с7927100 0.0 10153111
16:00+10с5823100 0.0 10162873
19:00+10ссз58193 0.0 10162169
22:00+5з11260 0.0 101810